Wind_Speed
27 27 29 29 29 27 19 20 17 18 24 28 30 29 26 32 26 24 23 20 8 17 25 23 20 20 19 18 15 13 15 15 14 12 7 3 1 1 4 3 1 2 3 4 4 4 3 7 11
28 30 31 32 31 25 18 17 15 26 28 33 32 34 35 29 24 24 24 16 10 19 29 24 22 20 19 18 16 13 13 15 15 13 10 7 3 2 4 4 2 2 3 5 6 6 5 8 11
29 31 33 33 29 19 18 20 23 26 28 32 36 36 34 30 31 31 22 19 12 11 27 22 24 18 17 17 16 13 11 13 14 13 10 8 5 3 4 3 3 4 4 6 7 7 8 10 11
28 32 33 33 27 27 24 25 27 30 33 33 38 38 36 32 29 29 25 18 11 6 23 27 21 16 15 16 16 14 12 13 13 12 10 8 5 5 4 4 4 5 7 8 10 9 10 11 11
31 32 34 31 29 30 28 30 33 35 38 38 40 41 37 36 34 33 29 25 24 14 23 22 19 18 15 17 16 15 13 13 13 11 10 9 8 6 6 6 5 6 8 10 13 12 12 12 12
33 34 35 31 29 33 32 36 40 39 41 43 42 40 37 41 37 34 31 23 20 16 13 27 15 17 18 18 17 16 15 14 14 13 12 11 9 8 8 9 9 8 9 11 14 15 14 15 15
36 37 37 33 33 35 35 38 43 43 43 45 46 42 41 46 42 40 38 30 25 16 14 28 27 28 22 21 18 19 17 15 15 15 14 13 11 10 11 12 12 11 11 12 15 16 15 17 18
38 41 40 37 37 40 39 41 46 48 46 47 48 46 43 45 46 45 42 33 30 25 17 23 30 32 25 22 19 19 18 17 16 16 16 14 13 12 13 13 14 13 14 15 18 18 17 19 19
45 46 46 44 43 46 45 46 48 52 49 50 50 49 46 45 45 46 44 37 34 26 18 26 24 22 22 23 21 20 19 19 18 16 15 16 14 14 15 15 16 15 16 18 20 20 20 22 23
52 54 54 55 52 53 52 49 51 53 54 52 51 51 51 49 47 47 45 39 30 28 26 31 28 24 22 21 23 20 19 19 19 18 17 17 18 17 17 18 18 17 17 21 23 22 22 23 24
59 62 63 62 61 61 61 56 56 56 57 57 56 53 53 53 52 49 47 44 33 33 37 38 37 32 29 25 20 20 19 20 20 20 19 19 19 18 19 20 20 18 20 23 24 22 23 25 26
59 62 68 69 69 69 68 66 61 61 60 61 61 57 57 55 55 53 52 49 43 33 38 37 37 32 31 26 23 20 22 23 22 23 22 22 23 20 21 22 20 19 21 24 25 22 25 26 28
44 44 52 61 67 70 72 72 69 65 65 65 65 64 60 57 59 57 56 55 50 42 39 42 36 33 30 29 29 26 25 24 24 25 25 24 23 22 22 23 20 21 23 26 24 24 26 29 31
25 24 26 31 42 53 62 70 73 70 70 69 69 68 66 64 60 61 61 61 56 50 45 41 41 38 32 26 22 24 27 27 25 27 28 27 24 24 22 20 21 22 27 26 23 26 28 31 33
30 27 24 26 27 28 37 52 61 67 70 73 73 72 71 70 63 62 64 64 61 54 49 48 43 44 39 33 27 24 25 28 28 29 28 29 26 25 23 21 22 24 27 26 26 30 31 33 34
32 30 28 30 31 30 35 35 36 52 64 72 75 76 72 72 70 64 66 65 64 60 49 56 50 45 44 40 32 26 26 27 29 30 29 28 27 24 23 23 23 24 26 28 29 31 34 36 37
32 30 28 25 32 35 39 31 21 34 45 61 73 75 77 74 73 69 67 67 64 60 52 63 60 50 45 41 35 32 28 30 32 32 31 31 28 25 26 25 23 26 29 28 30 33 36 39 40
23 20 18 21 22 33 36 34 30 34 37 39 59 72 75 79 70 74 67 68 65 66 52 63 58 53 47 44 37 33 29 31 33 34 33 32 28 28 28 26 27 28 29 30 33 33 36 38 34
22 24 30 25 29 38 35 37 34 33 46 40 36 58 74 79 74 73 72 69 70 68 66 66 61 55 52 47 39 35 33 29 33 36 37 32 31 30 28 28 28 29 31 33 35 35 36 32 33
23 28 22 24 34 39 37 34 41 40 44 45 47 46 61 76 80 74 76 68 71 70 69 66 60 65 53 46 43 36 32 31 35 38 36 33 33 31 28 27 29 28 30 37 39 42 40 32 33
18 26 30 31 40 42 49 37 30 38 43 48 51 46 54 68 80 74 76 73 70 72 71 71 70 71 55 50 45 43 43 43 40 38 38 38 34 29 27 27 30 31 35 39 38 38 33 33 35
14 25 33 32 40 41 36 45 31 30 42 48 49 51 56 62 75 76 78 81 75 74 72 71 53 49 50 54 47 46 43 43 36 40 40 36 30 29 29 30 32 33 37 40 36 33 36 33 35
22 26 32 32 33 34 23 36 29 30 32 43 54 54 58 61 72 74 72 76 77 74 72 70 68 67 53 48 51 49 46 45 46 42 41 36 34 36 32 35 32 30 35 34 37 35 40 37 39
24 30 30 33 37 41 27 29 25 27 31 27 51 53 52 60 67 71 65 67 69 68 67 61 60 49 52 55 55 48 49 47 44 46 45 44 45 37 33 33 32 33 36 35 35 40 40 38 39
22 28 42 39 43 31 23 24 26 24 24 12 28 41 44 54 58 65 63 62 63 64 60 63 52 45 42 34 40 42 45 51 52 47 47 48 45 38 32 34 40 41 41 39 39 36 35 38 40
28 35 30 41 45 45 30 22 20 21 20 10 12 29 34 44 49 54 59 56 53 52 55 58 48 53 49 48 33 43 51 43 52 53 50 47 46 36 36 35 41 42 40 37 36 35 36 37 39
28 29 33 44 47 40 33 25 14 15 16 10 6 12 28 37 41 44 55 56 44 45 50 48 47 38 44 44 35 33 39 42 54 54 55 48 38 44 40 39 35 37 40 37 34 40 33 37 39
29 29 40 47 52 49 46 32 14 7 4 4 9 13 20 28 35 37 55 58 46 45 48 43 35 42 35 31 29 32 40 41 42 42 57 50 43 41 35 36 30 37 41 39 31 31 36 37 37
21 22 40 41 45 34 47 19 13 4 3 4 12 15 20 28 31 35 55 52 45 46 47 46 46 47 41 44 30 33 33 41 46 45 59 52 46 37 35 31 36 38 37 29 26 31 34 34 35
19 19 30 43 47 39 31 28 16 9 4 3 12 14 21 29 29 40 52 48 41 46 46 49 50 46 44 40 36 24 23 28 26 47 43 53 40 35 33 35 39 32 32 24 26 30 31 32 34
Wind_Direction
254 254 256 256 253 250 238 232 218 223 231 232 231 229 228 238 240 246 249 254 249 220 226 218 227 216 213 198 196 187 176 176 180 181 188 198 192 351 329 327 359 331 286 274 283 277 305 311 308
259 257 255 256 258 254 245 235 232 229 228 232 233 237 230 238 244 246 245 250 249 223 214 218 213 224 213 204 197 196 186 186 187 186 188 199 219 290 318 328 338 320 304 292 285 298 319 309 314
259 257 257 257 256 253 253 240 233 233 236 232 232 234 241 238 243 245 250 253 243 235 222 221 225 222 219 206 205 197 194 200 201 194 195 204 219 268 309 328 323 313 304 295 292 305 311 312 324
258 259 258 258 256 253 253 245 236 235 238 235 232 234 238 237 237 243 248 241 245 242 186 212 219 208 239 209 211 206 193 205 216 209 201 208 219 256 290 308 311 309 299 292 292 300 307 312 326
259 255 257 257 256 255 251 248 242 236 238 239 236 235 237 237 235 242 250 245 246 255 208 207 209 200 220 227 209 214 204 204 218 223 223 215 228 241 263 279 284 288 296 298 297 302 307 313 316
265 261 258 257 253 249 245 245 245 240 236 240 240 236 239 241 238 239 244 240 246 234 233 211 218 213 212 229 210 213 211 206 217 222 219 234 233 254 265 274 282 286 288 295 298 301 312 312 309
266 265 263 257 251 248 241 239 243 242 239 238 241 237 234 240 240 239 236 235 244 241 244 211 227 227 208 221 218 216 212 215 215 223 224 222 229 241 258 270 282 290 294 295 292 298 306 309 311
271 266 263 259 255 252 244 239 242 242 239 237 237 238 235 240 242 241 242 238 242 242 257 212 201 212 206 214 216 227 219 217 222 226 227 228 231 239 254 268 278 285 292 291 292 298 309 312 309
271 268 265 260 254 249 245 240 240 243 241 240 238 236 234 237 241 242 245 243 242 240 226 200 206 206 209 212 213 222 231 224 226 228 232 234 234 241 250 261 269 279 286 289 290 298 309 311 315
272 269 265 260 256 254 249 242 239 241 243 241 240 237 234 234 237 238 238 244 241 233 214 200 218 218 213 222 221 218 230 236 234 231 228 233 238 241 250 260 270 276 281 283 287 296 306 309 311
270 267 262 259 254 251 248 242 236 236 238 239 238 238 235 232 234 237 237 243 226 213 209 214 213 210 211 208 213 227 227 234 238 241 235 232 235 243 253 257 264 273 280 280 284 297 304 306 308
269 263 258 255 252 250 248 244 237 233 233 236 236 234 235 230 230 232 234 239 239 217 205 206 208 210 210 213 216 215 224 228 233 237 235 231 233 241 253 262 267 276 275 275 284 297 299 303 307
289 277 268 263 257 251 245 244 239 234 232 231 234 233 235 230 228 228 231 233 236 231 211 201 203 207 208 214 218 218 222 223 228 234 239 237 238 244 250 260 270 272 273 274 289 298 299 302 304
308 302 291 274 264 258 254 248 243 236 232 230 230 232 232 231 227 224 228 233 237 231 219 208 203 204 203 218 224 230 223 217 224 234 237 239 244 249 254 261 265 267 269 277 293 291 294 299 306
316 312 307 291 287 284 272 252 248 244 238 231 231 228 231 231 225 225 223 229 237 235 229 210 206 206 198 202 215 229 228 236 213 223 235 242 243 246 252 257 259 264 271 285 287 291 297 302 305
315 305 297 290 291 287 287 269 263 251 238 235 231 231 229 232 226 221 222 225 231 234 232 221 209 207 201 198 200 213 225 225 221 219 229 241 246 247 252 255 257 264 273 280 288 294 298 299 297
320 314 299 291 283 285 287 287 278 267 256 235 231 231 231 231 230 221 219 221 225 228 228 215 203 206 206 201 201 206 211 217 217 221 224 232 238 242 248 252 258 263 271 281 287 291 296 295 296
328 338 324 326 302 295 291 284 261 256 262 250 234 230 229 229 231 227 216 217 220 224 218 212 198 204 206 203 202 208 206 212 216 220 224 231 235 240 247 251 258 267 274 284 285 289 294 296 297
321 318 325 322 320 297 292 287 283 274 260 253 250 234 226 226 228 229 223 214 217 220 210 213 213 210 203 200 202 206 208 211 219 223 225 229 235 238 245 255 264 271 279 278 285 291 292 294 296
318 319 326 320 314 314 308 288 267 268 265 259 249 240 228 223 225 221 227 216 215 215 220 220 224 227 198 204 200 211 213 211 216 221 226 229 234 238 245 257 267 272 277 281 284 289 283 292 296
314 313 320 326 327 306 307 306 293 260 260 254 251 244 231 221 221 217 220 218 215 216 218 222 233 214 194 195 202 210 215 218 209 217 223 229 233 237 246 254 257 273 283 285 283 282 277 289 293
324 322 320 325 323 326 324 319 306 267 247 245 243 242 224 221 219 216 214 223 214 211 216 220 207 214 217 193 212 222 215 224 221 219 222 226 232 235 241 255 262 265 272 279 276 277 280 287 293
331 330 334 331 339 333 329 313 319 303 286 254 235 231 218 214 216 216 214 218 219 214 215 222 227 235 231 238 238 238 217 223 221 216 224 225 227 234 245 255 259 261 267 270 271 280 282 287 292
344 337 336 334 328 336 332 325 334 323 319 273 230 222 217 211 211 212 210 211 219 218 217 218 225 227 227 241 250 214 217 224 230 218 219 227 230 235 245 244 243 256 262 266 270 280 286 290 294
341 344 337 348 350 357 338 340 338 347 345 282 225 215 211 212 209 211 207 203 211 215 215 212 206 204 214 209 210 213 218 222 226 222 235 227 232 230 234 248 250 252 262 269 270 283 285 290 294
354 357 356 344 349 350 352 345 347 353 8 354 220 209 204 210 208 208 201 196 205 206 206 209 207 217 228 230 241 243 235 234 224 225 229 218 232 229 236 244 250 258 265 274 275 281 280 290 292
2 1 360 357 359 359 346 356 347 355 8 42 108 179 203 207 203 207 198 193 192 197 205 203 206 208 224 223 231 232 238 236 266 227 229 244 231 236 236 246 254 265 268 272 275 277 287 289 296
356 359 13 9 5 1 353 357 6 340 19 162 183 200 211 211 204 203 193 197 194 187 196 203 191 201 198 201 222 246 247 257 262 241 232 234 228 231 238 245 258 260 268 270 268 278 281 295 299
342 0 4 358 357 2 355 2 2 350 299 189 197 204 206 206 204 202 192 193 185 179 189 201 210 218 221 219 242 253 258 246 256 234 233 224 229 236 244 253 258 263 268 262 271 279 292 297 306
349 351 3 354 358 7 11 30 11 7 259 280 195 188 200 195 192 193 196 190 181 175 187 195 208 217 228 231 235 244 265 264 218 204 213 221 226 238 246 251 259 251 254 273 278 289 291 300 311
Height
5847 5848 5848 5848 5852 5852 5858 5863 5861 5860 5858 5857 5859 5861 5864 5866 5870 5873 5872 5875 5880 5880 5884 5887 5890 5892 5893 5892 5892 5893 5892 5893 5895 5896 5899 5901 5902 5903 5905 5905 5905 5905 5905 5905 5905 5904 5903 5902 5901
5843 5843 5845 5844 5845 5849 5856 5858 5857 5852 5851 5852 5855 5855 5860 5865 5868 5870 5871 5873 5876 5880 5879 5882 5887 5892 5892 5891 5892 5892 5892 5893 5895 5896 5898 5900 5902 5903 5904 5904 5905 5905 5904 5904 5904 5904 5904 5902 5901
5838 5838 5839 5839 5841 5846 5850 5852 5851 5848 5846 5848 5849 5851 5855 5861 5864 5866 5870 5873 5874 5875 5880 5885 5885 5889 5890 5890 5892 5891 5891 5894 5895 5895 5898 5900 5900 5901 5903 5903 5904 5904 5903 5903 5902 5903 5903 5902 5901
5832 5832 5833 5834 5839 5841 5844 5844 5844 5843 5840 5841 5845 5848 5852 5855 5859 5861 5866 5870 5872 5873 5874 5880 5883 5885 5888 5888 5891 5891 5889 5893 5895 5895 5896 5898 5899 5900 5901 5901 5902 5903 5903 5902 5901 5902 5902 5901 5901
5825 5826 5825 5830 5834 5835 5837 5836 5835 5836 5834 5835 5838 5841 5850 5850 5853 5856 5860 5865 5868 5871 5873 5875 5877 5879 5884 5889 5888 5890 5889 5890 5893 5894 5896 5896 5898 5898 5899 5900 5900 5900 5901 5901 5900 5901 5902 5901 5900
5817 5818 5819 5824 5826 5825 5828 5827 5825 5827 5828 5827 5831 5840 5847 5843 5848 5851 5854 5860 5864 5867 5869 5872 5874 5877 5881 5886 5885 5888 5889 5888 5890 5892 5893 5895 5896 5898 5898 5898 5899 5899 5899 5899 5899 5899 5900 5900 5898
5810 5810 5811 5816 5817 5816 5819 5819 5815 5817 5820 5821 5822 5830 5839 5835 5842 5845 5846 5853 5858 5861 5866 5869 5871 5874 5875 5881 5883 5886 5886 5887 5888 5890 5891 5892 5893 5895 5896 5897 5898 5899 5899 5898 5896 5896 5897 5897 5897
5801 5800 5802 5806 5808 5807 5808 5809 5806 5806 5809 5812 5815 5819 5829 5830 5834 5840 5843 5850 5853 5858 5861 5864 5864 5868 5870 5876 5879 5884 5884 5884 5886 5888 5889 5891 5892 5893 5894 5896 5897 5898 5897 5896 5894 5895 5895 5894 5894
5790 5789 5791 5793 5795 5793 5795 5798 5797 5796 5800 5801 5804 5812 5817 5822 5826 5831 5837 5847 5851 5854 5858 5861 5864 5866 5868 5871 5874 5878 5882 5882 5884 5885 5887 5889 5891 5892 5892 5894 5895 5896 5896 5894 5892 5892 5892 5891 5890
5777 5777 5776 5776 5780 5779 5781 5786 5788 5788 5790 5794 5796 5802 5807 5811 5817 5820 5826 5836 5844 5850 5854 5856 5860 5863 5865 5869 5871 5874 5878 5880 5882 5883 5884 5886 5889 5890 5891 5891 5893 5894 5893 5891 5889 5888 5889 5887 5886
5762 5759 5756 5758 5761 5760 5763 5768 5771 5775 5779 5781 5785 5790 5797 5803 5807 5813 5817 5825 5830 5836 5843 5849 5853 5857 5861 5865 5869 5871 5874 5877 5880 5882 5882 5884 5886 5887 5888 5889 5891 5891 5890 5888 5886 5886 5885 5884 5883
5740 5738 5734 5737 5738 5740 5744 5748 5757 5760 5765 5766 5771 5779 5783 5791 5797 5803 5808 5815 5824 5829 5831 5839 5846 5851 5855 5860 5863 5866 5870 5872 5875 5878 5880 5880 5883 5884 5886 5887 5888 5888 5887 5885 5884 5884 5882 5880 5878
5717 5717 5715 5714 5716 5716 5722 5728 5737 5746 5750 5754 5756 5763 5767 5777 5785 5793 5799 5804 5812 5821 5826 5828 5834 5842 5848 5852 5855 5859 5863 5867 5869 5873 5877 5877 5879 5881 5883 5885 5885 5884 5883 5881 5882 5881 5878 5875 5873
5711 5709 5704 5701 5698 5701 5702 5710 5713 5731 5732 5738 5743 5748 5753 5761 5771 5780 5787 5793 5801 5810 5817 5822 5826 5831 5837 5844 5848 5852 5855 5860 5864 5870 5872 5873 5875 5877 5879 5881 5881 5880 5878 5878 5879 5876 5873 5871 5869
5705 5705 5699 5695 5693 5693 5689 5695 5700 5704 5714 5721 5727 5733 5738 5743 5756 5765 5775 5783 5791 5801 5809 5815 5820 5824 5827 5833 5841 5847 5852 5854 5856 5863 5868 5869 5871 5872 5874 5876 5876 5875 5874 5875 5874 5872 5870 5867 5865
5701 5699 5696 5691 5687 5686 5681 5687 5687 5685 5692 5701 5710 5717 5725 5728 5739 5749 5760 5772 5781 5789 5800 5807 5812 5818 5819 5822 5827 5838 5845 5850 5854 5857 5860 5865 5867 5868 5870 5871 5872 5871 5871 5871 5870 5867 5865 5862 5860
5695 5692 5689 5687 5683 5680 5675 5678 5681 5676 5675 5685 5691 5701 5709 5717 5722 5735 5746 5759 5770 5780 5787 5795 5801 5809 5814 5818 5822 5827 5833 5842 5848 5853 5855 5858 5861 5862 5864 5865 5867 5866 5867 5866 5864 5862 5860 5857 5854
5691 5687 5684 5681 5680 5672 5668 5666 5671 5667 5663 5669 5675 5683 5691 5700 5710 5719 5734 5746 5758 5766 5781 5788 5792 5801 5808 5812 5814 5822 5827 5833 5841 5847 5849 5853 5855 5857 5859 5860 5861 5861 5862 5861 5859 5858 5855 5852 5848
5686 5683 5679 5677 5670 5664 5662 5658 5657 5656 5652 5658 5662 5665 5673 5682 5695 5704 5718 5732 5743 5755 5768 5779 5784 5795 5800 5803 5809 5816 5823 5828 5833 5840 5843 5846 5849 5852 5854 5856 5856 5857 5857 5856 5855 5853 5850 5847 5844
5682 5677 5674 5670 5663 5656 5648 5644 5642 5644 5639 5640 5645 5650 5656 5666 5674 5691 5703 5719 5732 5744 5755 5767 5775 5782 5790 5796 5804 5812 5816 5819 5825 5831 5837 5840 5844 5846 5848 5850 5851 5851 5851 5850 5848 5847 5846 5843 5841
5678 5671 5668 5662 5656 5648 5639 5630 5627 5629 5622 5621 5624 5634 5639 5648 5658 5675 5687 5707 5718 5731 5745 5758 5765 5770 5780 5790 5800 5805 5808 5809 5813 5821 5828 5834 5838 5840 5843 5844 5845 5845 5844 5843 5841 5841 5841 5840 5836
5674 5668 5661 5655 5648 5636 5626 5609 5614 5606 5604 5604 5609 5615 5625 5634 5645 5660 5673 5688 5708 5722 5732 5746 5753 5764 5774 5784 5793 5798 5804 5811 5813 5817 5822 5829 5833 5836 5837 5838 5838 5837 5837 5836 5837 5836 5835 5833 5829
5669 5663 5656 5649 5641 5628 5619 5605 5600 5594 5590 5588 5587 5595 5605 5617 5631 5648 5660 5676 5695 5712 5727 5736 5750 5760 5773 5780 5785 5792 5799 5804 5805 5811 5818 5823 5827 5829 5832 5832 5833 5831 5831 5831 5831 5831 5829 5828 5824
5664 5659 5654 5646 5635 5623 5613 5603 5596 5583 5571 5560 5567 5582 5595 5605 5619 5637 5653 5668 5683 5700 5716 5730 5744 5754 5767 5770 5773 5783 5793 5799 5802 5805 5810 5814 5817 5821 5824 5824 5824 5825 5825 5825 5825 5825 5824 5822 5818
5663 5655 5645 5636 5627 5617 5608 5601 5592 5583 5571 5564 5567 5576 5589 5602 5612 5628 5643 5659 5673 5691 5707 5723 5732 5747 5758 5765 5774 5778 5784 5791 5792 5798 5804 5808 5812 5814 5817 5817 5818 5819 5819 5820 5820 5821 5819 5815 5811
5659 5652 5644 5634 5624 5615 5607 5600 5593 5585 5578 5572 5570 5578 5588 5598 5611 5622 5639 5656 5671 5688 5704 5721 5727 5742 5751 5761 5768 5773 5777 5780 5783 5789 5794 5797 5803 5805 5808 5810 5811 5814 5815 5815 5814 5814 5812 5808 5804
5658 5651 5646 5633 5624 5613 5606 5600 5595 5589 5585 5581 5580 5583 5593 5602 5612 5625 5640 5655 5667 5684 5701 5717 5728 5738 5747 5751 5760 5763 5768 5772 5778 5781 5786 5792 5798 5798 5799 5804 5808 5810 5807 5806 5808 5808 5804 5801 5799
5656 5651 5641 5635 5623 5612 5608 5600 5597 5594 5593 5592 5591 5595 5602 5609 5618 5627 5641 5651 5666 5683 5699 5713 5722 5733 5743 5747 5754 5760 5762 5768 5770 5773 5779 5788 5789 5792 5796 5799 5799 5800 5800 5800 5802 5800 5798 5795 5791
5658 5649 5643 5636 5628 5617 5607 5601 5598 5597 5596 5596 5599 5602 5605 5611 5620 5630 5640 5654 5667 5682 5696 5708 5719 5728 5735 5742 5750 5753 5755 5759 5759 5761 5770 5778 5783 5789 5790 5792 5794 5794 5793 5793 5794 5793 5792 5789 5783
5653 5648 5645 5636 5629 5620 5612 5607 5603 5600 5600 5600 5601 5605 5607 5612 5619 5629 5640 5656 5666 5678 5692 5703 5713 5722 5729 5737 5746 5748 5743 5743 5739 5752 5761 5771 5778 5779 5781 5785 5785 5785 5786 5787 5787 5785 5783 5780 5776